Hourly Data Report for June 18, 2018

LONDON CS
ONTARIO
Current Station Operator: ECCC - MSC

43°02'00.000" N
81°09'00.000" W
278.00 m
6144478
71622
WSN

Download Data

Hourly Data (June 2018)
Hourly Data Report for June 18, 2018
TIME Temp Definition
°C
Dew Point Definition
°C
Rel Hum Definition
%
Wind Dir Definition
10's deg

Wind Spd Definition
km/h
Visibility Definition
km
Stn Press Definition
kPa
Hmdx Definition


Wind Chill Definition


Weather Definition


00:00 24.8 20.3 76 LegendMM LegendMM   98.28 33   LegendNANA
01:00 25.0 20.3 75 LegendMM LegendMM   98.24 33   LegendNANA
02:00 25.6 20.2 72 LegendMM LegendMM   98.19 33   LegendNANA
03:00 25.1 20.3 75 LegendMM LegendMM   98.15 33   LegendNANA
04:00 24.7 20.3 77 LegendMM LegendMM   98.14 33   LegendNANA
05:00 24.7 20.5 78 LegendMM LegendMM   98.15 33   LegendNANA
06:00 25.7 21.0 75 LegendMM LegendMM   98.15 34   LegendNANA
07:00 26.0 21.2 75 LegendMM LegendMM   98.13 35   LegendNANA
08:00 27.3 21.8 72 LegendMM LegendMM   98.12 36   LegendNANA
09:00 28.1 22.1 70 LegendMM LegendMM   98.12 38   LegendNANA
10:00 29.6 22.3 65 LegendMM LegendMM   98.11 39   LegendNANA
11:00 30.4 22.6 63 LegendMM LegendMM   98.06 40   LegendNANA
12:00 23.5 20.5 84 LegendMM LegendMM   98.10 31   LegendNANA
13:00 28.6 23.8 75 LegendMM LegendMM   97.92 40   LegendNANA
14:00 26.8 22.5 77 LegendMM LegendMM   97.91 37   LegendNANA
15:00 28.3 23.1 73 LegendMM LegendMM   97.77 39   LegendNANA
16:00 24.4 22.7 90 LegendMM LegendMM   97.86 34   LegendNANA
17:00 23.3 22.5 95 LegendMM LegendMM   97.91 33   LegendNANA
18:00 24.4 22.8 91 LegendMM LegendMM   97.86 34   LegendNANA
19:00 24.9 21.9 83 LegendMM LegendMM   97.91 34   LegendNANA
20:00 23.3 21.1 88 LegendMM LegendMM   97.93 32   LegendNANA
21:00 22.8 20.1 85 LegendMM LegendMM   98.00 30   LegendNANA
22:00 21.5 19.2 87 LegendMM LegendMM   98.01 28   LegendNANA
23:00 20.7 18.9 89 LegendMM LegendMM   98.05 27   LegendNANA

Notes on Data Quality.

Legend

  • E = Estimated
  • M = Missing
  • NA = Not Available*
  • [empty] = Indicates an unobserved value
Date modified: